ProjectID,Date,Electric Generation,Electric Utility Import,Facility Electric Load
,YYYY-MM-DD,kW,kW,kW
537,2017-06-10,197.99999999999997,,197.99999999999997
537,2017-06-11,197.65833333333333,,197.65833333333333
537,2017-06-12,197.42500000000004,,197.42500000000004
537,2017-06-13,197.1333333333334,,197.1333333333334
537,2017-06-14,197.725,,197.725
537,2017-06-15,190.08333333333326,,190.08333333333326
537,2017-06-16,197.94583333333333,,197.94583333333333
537,2017-06-17,197.79999999999998,,197.79999999999998
537,2017-06-18,197.42499999999998,,197.42499999999998
537,2017-06-19,187.27083333333334,,187.27083333333334
537,2017-06-20,192.75833333333335,,192.75833333333335
537,2017-06-21,192.66666666666666,,192.66666666666666
537,2017-06-22,192.9041666666666,,192.9041666666666
537,2017-06-23,192.5916666666667,,192.5916666666667
537,2017-06-24,192.4458333333333,,192.4458333333333
537,2017-06-25,192.64166666666665,,192.64166666666665
537,2017-06-26,192.96249999999998,,192.96249999999998
537,2017-06-27,192.9458333333333,,192.9458333333333
537,2017-06-28,192.92499999999995,,192.92499999999995
537,2017-06-29,192.83749999999998,,192.83749999999998
537,2017-06-30,192.5583333333334,,192.5583333333334
537,2017-07-01,192.63333333333335,,192.63333333333335
537,2017-07-02,192.15416666666667,,192.15416666666667
537,2017-07-03,192.10416666666666,,192.10416666666666
537,2017-07-04,192.2541666666667,,192.2541666666667
537,2017-07-05,192.27083333333334,,192.27083333333334
537,2017-07-06,192.4333333333333,,192.4333333333333
537,2017-07-07,192.25000000000003,,192.25000000000003
537,2017-07-08,177.85,,177.85
537,2017-07-09,152.45,,152.45
537,2017-07-10,152.4416666666667,,152.4416666666667
537,2017-07-11,180.65,,180.65
537,2017-07-12,151.90833333333333,,151.90833333333333
537,2017-07-13,151.80000000000004,,151.80000000000004
537,2017-07-14,191.05833333333337,,191.05833333333337
537,2017-07-15,191.28333333333333,,191.28333333333333
537,2017-07-16,191.29583333333332,,191.29583333333332
537,2017-07-17,191.4,,191.4
537,2017-07-18,191.23333333333338,,191.23333333333338
537,2017-07-19,190.9708333333334,,190.9708333333334
537,2017-07-20,186.38333333333333,,186.38333333333333
537,2017-07-21,151.85,,151.85
537,2017-07-22,186.04583333333332,,186.04583333333332
537,2017-07-23,190.7833333333333,,190.7833333333333
537,2017-07-24,190.87083333333337,,190.87083333333337
537,2017-07-25,190.94583333333335,,190.94583333333335
537,2017-07-26,190.70833333333334,,190.70833333333334
537,2017-07-27,176.4166666666667,,176.4166666666667
537,2017-07-28,191.75,,191.75
537,2017-07-29,191.98749999999998,,191.98749999999998
537,2017-07-30,191.975,,191.975
537,2017-07-31,191.7541666666667,,191.7541666666667
537,2017-08-01,191.4416666666667,,191.4416666666667
537,2017-08-02,191.60833333333335,,191.60833333333335
537,2017-08-03,191.54166666666666,,191.54166666666666
537,2017-08-04,191.32500000000002,,191.32500000000002
537,2017-08-05,191.38333333333335,,191.38333333333335
537,2017-08-06,191.67083333333332,,191.67083333333332
537,2017-08-07,191.9333333333333,,191.9333333333333
537,2017-08-08,191.5666666666666,,191.5666666666666
537,2017-08-09,191.42500000000004,,191.42500000000004
537,2017-08-10,191.42499999999998,,191.42499999999998
537,2017-08-11,191.39166666666665,,191.39166666666665
537,2017-08-12,191.40416666666667,,191.40416666666667
537,2017-08-13,190.94583333333335,,190.94583333333335
537,2017-08-14,191.1958333333334,,191.1958333333334
537,2017-08-15,191.3416666666667,,191.3416666666667
537,2017-08-16,190.8083333333333,,190.8083333333333
537,2017-08-17,190.92916666666665,,190.92916666666665
537,2017-08-18,190.80416666666667,,190.80416666666667
537,2017-08-19,190.44999999999996,,190.44999999999996
537,2017-08-20,190.71666666666667,,190.71666666666667
537,2017-08-21,190.80416666666667,,190.80416666666667
537,2017-08-22,190.51666666666665,,190.51666666666665
537,2017-08-23,190.6208333333333,,190.6208333333333
537,2017-08-24,190.90416666666667,,190.90416666666667
537,2017-08-25,191.10833333333338,,191.10833333333338
537,2017-08-26,191.17083333333332,,191.17083333333332
537,2017-08-27,191.11249999999998,,191.11249999999998
537,2017-08-28,190.19583333333333,,190.19583333333333
537,2017-08-29,173.67499999999995,,173.67499999999995
537,2017-08-30,153.85,,153.85
537,2017-08-31,178.23750000000004,,178.23750000000004
537,2017-09-01,182.3083333333333,,182.3083333333333
537,2017-09-02,182.60000000000002,,182.60000000000002
537,2017-09-03,182.275,,182.275
537,2017-09-04,181.79583333333335,,181.79583333333335
537,2017-09-05,181.5291666666667,,181.5291666666667
537,2017-09-06,181.25833333333335,,181.25833333333335
537,2017-09-07,181.29999999999998,,181.29999999999998
537,2017-09-08,181.36249999999998,,181.36249999999998
537,2017-09-09,181.525,,181.525
537,2017-09-10,181.4333333333333,,181.4333333333333
537,2017-09-11,181.26249999999996,,181.26249999999996
537,2017-09-12,180.9083333333333,,180.9083333333333
537,2017-09-13,180.66666666666666,,180.66666666666666
537,2017-09-14,180.43333333333328,,180.43333333333328
537,2017-09-15,180.2833333333333,,180.2833333333333
537,2017-09-16,180.2875,,180.2875
537,2017-09-17,180.23333333333332,,180.23333333333332
537,2017-09-18,180.68333333333337,,180.68333333333337
537,2017-09-19,181.28750000000005,,181.28750000000005
537,2017-09-20,180.94583333333335,,180.94583333333335
537,2017-09-21,179.67916666666665,,179.67916666666665
537,2017-09-22,179.26666666666665,,179.26666666666665
537,2017-09-23,179.0041666666667,,179.0041666666667
537,2017-09-24,178.98749999999998,,178.98749999999998
537,2017-09-25,178.94583333333333,,178.94583333333333
537,2017-09-26,179.07083333333333,,179.07083333333333
537,2017-09-27,178.69583333333335,,178.69583333333335
537,2017-09-28,179.36249999999998,,179.36249999999998
537,2017-09-29,181.7833333333333,,181.7833333333333
537,2017-09-30,181.8666666666667,,181.8666666666667
537,2017-10-01,181.85833333333332,,181.85833333333332
537,2017-10-02,181.79166666666663,,181.79166666666663
537,2017-10-03,181.84583333333333,,181.84583333333333
537,2017-10-04,181.5291666666666,,181.5291666666666
537,2017-10-05,180.9416666666667,,180.9416666666667
537,2017-10-06,180.84583333333333,,180.84583333333333
537,2017-10-07,180.8083333333333,,180.8083333333333
537,2017-10-08,180.67499999999998,,180.67499999999998
537,2017-10-09,180.6583333333333,,180.6583333333333
537,2017-10-10,180.4125,,180.4125
537,2017-10-11,180.72916666666666,,180.72916666666666
537,2017-10-12,172.95416666666665,,172.95416666666665
537,2017-10-13,182.65833333333333,,182.65833333333333
537,2017-10-14,182.21666666666673,,182.21666666666673
537,2017-10-15,181.9375,,181.9375
537,2017-10-16,13.266666666666666,,13.266666666666666
537,2017-10-17,0.0,,0.0
537,2017-10-18,0.0,,0.0
537,2017-10-19,0.0,,0.0
537,2017-10-20,0.0,,0.0
537,2017-10-21,0.0,,0.0
537,2017-10-22,0.0,,0.0
537,2017-10-23,0.0,,0.0
537,2017-10-24,0.0,,0.0
537,2017-10-25,0.0,,0.0
537,2017-10-26,0.0,,0.0
537,2017-10-27,0.0,,0.0
537,2017-10-28,0.0,,0.0
537,2017-10-29,0.0,,0.0
537,2017-10-30,0.0,,0.0
537,2017-10-31,0.0,,0.0
537,2017-11-01,0.0,,0.0
537,2017-11-02,92.3875,,92.3875
537,2017-11-03,184.63750000000005,,184.63750000000005
537,2017-11-04,185.15,,185.15
537,2017-11-05,173.47500000000002,,173.47500000000002
537,2017-11-06,184.66666666666666,,184.66666666666666
537,2017-11-07,185.17916666666665,,185.17916666666665
537,2017-11-08,185.30416666666667,,185.30416666666667
537,2017-11-09,182.42916666666665,,182.42916666666665
537,2017-11-10,185.29583333333335,,185.29583333333335
537,2017-11-11,176.04583333333332,,176.04583333333332
537,2017-11-12,185.4416666666667,,185.4416666666667
537,2017-11-13,185.21249999999998,,185.21249999999998
537,2017-11-14,185.17499999999995,,185.17499999999995
537,2017-11-15,184.95833333333337,,184.95833333333337
537,2017-11-16,184.67499999999995,,184.67499999999995
537,2017-11-17,184.91666666666666,,184.91666666666666
537,2017-11-18,184.42083333333335,,184.42083333333335
537,2017-11-19,184.33333333333334,,184.33333333333334
537,2017-11-20,184.7541666666667,,184.7541666666667
537,2017-11-21,184.61250000000004,,184.61250000000004
537,2017-11-22,184.55416666666667,,184.55416666666667
537,2017-11-23,184.91250000000002,,184.91250000000002
537,2017-11-24,184.7458333333333,,184.7458333333333
537,2017-11-25,184.39166666666665,,184.39166666666665
537,2017-11-26,184.42083333333335,,184.42083333333335
537,2017-11-27,184.59166666666667,,184.59166666666667
537,2017-11-28,184.60000000000002,,184.60000000000002
537,2017-11-29,184.25,,184.25
537,2017-11-30,184.41666666666674,,184.41666666666674
537,2017-12-01,184.23749999999998,,184.23749999999998
537,2017-12-02,184.45416666666668,,184.45416666666668
537,2017-12-03,184.41250000000002,,184.41250000000002
537,2017-12-04,152.85833333333332,,152.85833333333332
537,2017-12-05,177.4791666666667,,177.4791666666667
537,2017-12-06,184.03333333333327,,184.03333333333327
537,2017-12-07,182.1041666666667,,182.1041666666667
537,2017-12-08,184.39583333333337,,184.39583333333337
537,2017-12-09,184.45416666666668,,184.45416666666668
537,2017-12-10,184.50833333333333,,184.50833333333333
537,2017-12-11,184.43750000000003,,184.43750000000003
537,2017-12-12,183.89166666666665,,183.89166666666665
537,2017-12-13,184.5958333333333,,184.5958333333333
537,2017-12-14,184.53333333333333,,184.53333333333333
537,2017-12-15,184.68333333333328,,184.68333333333328
537,2017-12-16,184.42916666666665,,184.42916666666665
537,2017-12-17,184.26249999999996,,184.26249999999996
537,2017-12-18,180.48749999999998,,180.48749999999998
537,2017-12-19,183.72083333333333,,183.72083333333333
537,2017-12-20,7.645833333333333,,7.645833333333333
537,2017-12-21,176.5208333333333,,176.5208333333333
537,2017-12-22,184.05833333333337,,184.05833333333337
537,2017-12-23,183.6833333333334,,183.6833333333334
537,2017-12-24,183.8208333333334,,183.8208333333334
537,2017-12-25,184.02916666666667,,184.02916666666667
537,2017-12-26,184.5666666666667,,184.5666666666667
537,2017-12-27,184.6833333333333,,184.6833333333333
537,2017-12-28,184.90833333333333,,184.90833333333333
537,2017-12-29,184.7833333333333,,184.7833333333333
537,2017-12-30,184.52916666666667,,184.52916666666667
537,2017-12-31,184.8041666666667,,184.8041666666667
537,2018-01-01,184.89999999999998,,184.89999999999998
537,2018-01-02,184.64166666666665,,184.64166666666665
537,2018-01-03,184.37499999999997,,184.37499999999997
537,2018-01-04,183.8666666666667,,183.8666666666667
537,2018-01-05,184.38333333333335,,184.38333333333335
537,2018-01-06,184.7541666666667,,184.7541666666667
537,2018-01-07,184.63749999999996,,184.63749999999996
537,2018-01-08,184.11250000000004,,184.11250000000004
537,2018-01-09,178.57500000000002,,178.57500000000002
537,2018-01-10,174.26250000000002,,174.26250000000002
537,2018-01-11,164.26666666666668,,164.26666666666668
537,2018-01-12,152.82916666666668,,152.82916666666668
537,2018-01-13,168.9125,,168.9125
537,2018-01-14,169.9166666666666,,169.9166666666666
537,2018-01-15,169.59583333333336,,169.59583333333336
537,2018-01-16,169.20833333333334,,169.20833333333334
537,2018-01-17,152.88750000000002,,152.88750000000002
537,2018-01-18,164.08333333333337,,164.08333333333337
537,2018-01-19,169.80416666666665,,169.80416666666665
537,2018-01-20,169.34583333333333,,169.34583333333333
537,2018-01-21,169.11666666666665,,169.11666666666665
537,2018-01-22,169.08333333333334,,169.08333333333334
537,2018-01-23,168.675,,168.675
537,2018-01-24,168.85833333333332,,168.85833333333332
537,2018-01-25,169.72083333333333,,169.72083333333333
537,2018-01-26,169.8208333333333,,169.8208333333333
537,2018-01-27,169.25833333333335,,169.25833333333335
537,2018-01-28,168.53750000000002,,168.53750000000002
537,2018-01-29,168.45833333333334,,168.45833333333334
537,2018-01-30,168.6583333333333,,168.6583333333333
537,2018-01-31,169.0583333333334,,169.0583333333334
537,2018-02-01,168.5541666666667,,168.5541666666667
537,2018-02-02,168.975,,168.975
537,2018-02-03,169.37083333333334,,169.37083333333334
537,2018-02-04,168.57916666666668,,168.57916666666668
537,2018-02-05,168.5791666666667,,168.5791666666667
537,2018-02-06,168.74166666666665,,168.74166666666665
537,2018-02-07,168.45416666666665,,168.45416666666665
537,2018-02-08,168.59583333333327,,168.59583333333327
537,2018-02-09,168.5916666666667,,168.5916666666667
537,2018-02-10,168.1875,,168.1875
537,2018-02-11,167.78749999999994,,167.78749999999994
537,2018-02-12,167.98749999999993,,167.98749999999993
537,2018-02-13,168.59583333333333,,168.59583333333333
537,2018-02-14,168.0875,,168.0875
537,2018-02-15,167.64583333333331,,167.64583333333331
537,2018-02-16,167.57083333333335,,167.57083333333335
537,2018-02-17,168.22083333333327,,168.22083333333327
537,2018-02-18,167.79583333333335,,167.79583333333335
537,2018-02-19,168.01666666666668,,168.01666666666668
537,2018-02-20,167.54999999999998,,167.54999999999998
537,2018-02-21,167.43749999999997,,167.43749999999997
537,2018-02-22,167.8875,,167.8875
537,2018-02-23,168.17083333333332,,168.17083333333332
537,2018-02-24,167.77083333333334,,167.77083333333334
537,2018-02-25,167.74999999999997,,167.74999999999997
537,2018-02-26,165.2041666666667,,165.2041666666667
537,2018-02-27,167.53749999999997,,167.53749999999997
537,2018-02-28,167.45000000000002,,167.45000000000002
537,2018-03-01,167.28333333333336,,167.28333333333336
537,2018-03-02,167.61249999999998,,167.61249999999998
537,2018-03-03,167.67499999999998,,167.67499999999998
537,2018-03-04,167.64999999999998,,167.64999999999998
537,2018-03-05,167.7458333333333,,167.7458333333333
537,2018-03-06,167.55416666666667,,167.55416666666667
537,2018-03-07,167.5708333333333,,167.5708333333333
537,2018-03-08,167.5,,167.5
537,2018-03-09,167.50000000000003,,167.50000000000003
537,2018-03-10,167.55000000000004,,167.55000000000004
537,2018-03-11,165.35416666666666,,165.35416666666666
537,2018-03-12,165.90833333333333,,165.90833333333333
537,2018-03-13,131.1916666666667,,131.1916666666667
537,2018-03-14,167.06666666666666,,167.06666666666666
537,2018-03-15,167.15,,167.15
537,2018-03-16,167.32083333333335,,167.32083333333335
537,2018-03-17,167.3833333333333,,167.3833333333333
537,2018-03-18,167.30833333333328,,167.30833333333328
537,2018-03-19,167.3083333333333,,167.3083333333333
537,2018-03-20,167.37500000000003,,167.37500000000003
537,2018-03-21,167.33750000000006,,167.33750000000006
537,2018-03-22,167.20833333333331,,167.20833333333331
537,2018-03-23,167.14999999999995,,167.14999999999995
537,2018-03-24,167.1958333333333,,167.1958333333333
537,2018-03-25,167.39583333333334,,167.39583333333334
537,2018-03-26,167.52083333333334,,167.52083333333334
537,2018-03-27,167.4,,167.4
537,2018-03-28,167.14166666666665,,167.14166666666665
537,2018-03-29,166.96666666666673,,166.96666666666673
537,2018-03-30,166.67083333333335,,166.67083333333335
537,2018-03-31,166.87500000000003,,166.87500000000003
537,2018-04-01,166.76666666666662,,166.76666666666662
537,2018-04-02,167.09583333333333,,167.09583333333333
537,2018-04-03,167.01250000000002,,167.01250000000002
537,2018-04-04,166.65833333333327,,166.65833333333327
537,2018-04-05,166.97916666666669,,166.97916666666669
537,2018-04-06,166.79999999999998,,166.79999999999998
537,2018-04-07,166.6458333333333,,166.6458333333333
537,2018-04-08,166.89583333333334,,166.89583333333334
537,2018-04-09,166.975,,166.975
537,2018-04-10,166.7833333333333,,166.7833333333333
537,2018-04-11,166.80416666666665,,166.80416666666665
537,2018-04-12,166.59583333333336,,166.59583333333336
537,2018-04-13,166.13333333333333,,166.13333333333333
537,2018-04-14,166.18333333333334,,166.18333333333334
537,2018-04-15,166.6958333333333,,166.6958333333333
537,2018-04-16,145.9,,145.9
537,2018-04-17,166.39583333333334,,166.39583333333334
537,2018-04-18,167.42083333333332,,167.42083333333332
537,2018-04-19,167.44166666666666,,167.44166666666666
537,2018-04-20,167.64166666666665,,167.64166666666665
537,2018-04-21,167.5375,,167.5375
537,2018-04-22,167.39166666666668,,167.39166666666668
537,2018-04-23,167.4125,,167.4125
537,2018-04-24,167.31666666666666,,167.31666666666666
537,2018-04-25,167.03750000000002,,167.03750000000002
537,2018-04-26,166.62500000000003,,166.62500000000003
537,2018-04-27,167.025,,167.025
537,2018-04-28,166.82500000000002,,166.82500000000002
537,2018-04-29,166.93333333333337,,166.93333333333337
537,2018-04-30,167.17916666666665,,167.17916666666665
537,2018-05-01,166.61666666666665,,166.61666666666665
537,2018-05-02,165.87916666666663,,165.87916666666663
537,2018-05-03,165.80416666666665,,165.80416666666665
537,2018-05-04,166.08333333333334,,166.08333333333334
537,2018-05-05,166.25833333333333,,166.25833333333333
537,2018-05-06,166.4875,,166.4875
537,2018-05-07,166.47083333333333,,166.47083333333333
537,2018-05-08,166.6208333333333,,166.6208333333333
537,2018-05-09,166.51666666666665,,166.51666666666665
537,2018-05-10,166.4125,,166.4125
537,2018-05-11,165.95416666666665,,165.95416666666665
537,2018-05-12,166.65,,166.65
537,2018-05-13,166.85000000000002,,166.85000000000002
537,2018-05-14,166.4041666666667,,166.4041666666667
537,2018-05-15,165.8,,165.8
537,2018-05-16,166.17083333333338,,166.17083333333338
537,2018-05-17,166.13333333333335,,166.13333333333335
537,2018-05-18,166.1041666666667,,166.1041666666667
537,2018-05-19,166.4791666666667,,166.4791666666667
537,2018-05-20,165.3083333333333,,165.3083333333333
537,2018-05-21,165.70000000000002,,165.70000000000002
537,2018-05-22,166.14166666666668,,166.14166666666668
537,2018-05-23,165.60833333333332,,165.60833333333332
537,2018-05-24,166.72916666666663,,166.72916666666663
537,2018-05-25,166.50833333333338,,166.50833333333338
537,2018-05-26,166.19583333333335,,166.19583333333335
537,2018-05-27,167.18333333333337,,167.18333333333337
537,2018-05-28,167.4125,,167.4125
537,2018-05-29,166.5916666666667,,166.5916666666667
537,2018-05-30,166.8708333333333,,166.8708333333333
537,2018-05-31,166.91250000000002,,166.91250000000002
537,2018-06-01,153.83750000000003,,153.83750000000003
537,2018-06-02,124.99583333333332,,124.99583333333332
537,2018-06-03,163.35833333333335,,163.35833333333335
537,2018-06-04,166.89583333333334,,166.89583333333334
537,2018-06-05,166.56666666666663,,166.56666666666663
537,2018-06-06,166.89583333333331,,166.89583333333331
537,2018-06-07,166.98749999999998,,166.98749999999998
537,2018-06-08,166.63750000000002,,166.63750000000002
537,2018-06-09,166.18750000000003,,166.18750000000003
537,2018-06-10,166.52083333333334,,166.52083333333334
537,2018-06-11,166.84166666666667,,166.84166666666667
537,2018-06-12,166.72916666666663,,166.72916666666663
537,2018-06-13,166.42916666666665,,166.42916666666665
537,2018-06-14,165.76666666666668,,165.76666666666668
537,2018-06-15,166.2875,,166.2875
537,2018-06-16,166.08333333333331,,166.08333333333331
537,2018-06-17,165.91666666666666,,165.91666666666666
537,2018-06-18,165.87500000000003,,165.87500000000003
537,2018-06-19,165.26250000000002,,165.26250000000002
537,2018-06-20,165.84166666666664,,165.84166666666664
537,2018-06-21,165.6916666666667,,165.6916666666667
537,2018-06-22,165.98333333333332,,165.98333333333332
537,2018-06-23,166.11666666666665,,166.11666666666665
537,2018-06-24,165.61249999999998,,165.61249999999998
537,2018-06-25,165.52083333333331,,165.52083333333331
537,2018-06-26,165.89583333333331,,165.89583333333331
537,2018-06-27,165.9083333333333,,165.9083333333333
537,2018-06-28,165.29583333333335,,165.29583333333335
537,2018-06-29,164.6833333333333,,164.6833333333333
537,2018-06-30,164.85833333333332,,164.85833333333332
537,2018-07-01,164.60416666666666,,164.60416666666666
537,2018-07-02,163.7541666666667,,163.7541666666667
537,2018-07-03,165.20833333333334,,165.20833333333334
537,2018-07-04,165.23750000000004,,165.23750000000004
537,2018-07-05,165.05416666666665,,165.05416666666665
537,2018-07-06,165.24166666666665,,165.24166666666665
537,2018-07-07,165.85,,165.85
537,2018-07-08,165.73333333333332,,165.73333333333332
537,2018-07-09,165.525,,165.525
537,2018-07-10,165.02916666666667,,165.02916666666667
537,2018-07-11,164.75416666666666,,164.75416666666666
537,2018-07-12,190.42499999999998,,190.42499999999998
537,2018-07-13,197.09583333333333,,197.09583333333333
537,2018-07-14,196.875,,196.875
537,2018-07-15,197.14166666666665,,197.14166666666665
537,2018-07-16,196.67083333333338,,196.67083333333338
537,2018-07-17,196.78750000000002,,196.78750000000002
537,2018-07-18,196.8375,,196.8375
537,2018-07-19,197.05000000000004,,197.05000000000004
537,2018-07-20,197.10000000000002,,197.10000000000002
537,2018-07-21,197.2458333333333,,197.2458333333333
537,2018-07-22,196.91666666666663,,196.91666666666663
537,2018-07-23,196.78333333333342,,196.78333333333342
537,2018-07-24,196.54583333333338,,196.54583333333338
537,2018-07-25,196.67499999999998,,196.67499999999998
537,2018-07-26,196.33750000000006,,196.33750000000006
537,2018-07-27,196.42083333333332,,196.42083333333332
537,2018-07-28,196.39166666666668,,196.39166666666668
537,2018-07-29,196.48333333333338,,196.48333333333338
537,2018-07-30,196.66250000000002,,196.66250000000002
537,2018-07-31,196.7166666666667,,196.7166666666667
537,2018-08-01,196.18749999999997,,196.18749999999997
537,2018-08-02,196.05416666666667,,196.05416666666667
537,2018-08-03,196.13750000000002,,196.13750000000002
537,2018-08-04,196.0708333333333,,196.0708333333333
537,2018-08-05,195.85416666666663,,195.85416666666663
537,2018-08-06,183.83749999999998,,183.83749999999998
537,2018-08-07,187.30833333333337,,187.30833333333337
537,2018-08-08,191.87083333333337,,191.87083333333337
537,2018-08-09,194.7125,,194.7125
537,2018-08-10,194.83749999999998,,194.83749999999998
537,2018-08-11,195.1958333333333,,195.1958333333333
537,2018-08-12,194.99166666666665,,194.99166666666665
537,2018-08-13,195.12500000000009,,195.12500000000009
537,2018-08-14,181.55000000000004,,181.55000000000004
537,2018-08-15,160.88333333333335,,160.88333333333335
537,2018-08-16,202.2875,,202.2875
537,2018-08-17,207.29999999999998,,207.29999999999998
537,2018-08-18,207.4416666666667,,207.4416666666667
537,2018-08-19,207.85000000000005,,207.85000000000005
537,2018-08-20,208.02916666666667,,208.02916666666667
537,2018-08-21,207.92499999999995,,207.92499999999995
537,2018-08-22,170.5375,,170.5375
537,2018-08-23,198.3541666666666,,198.3541666666666
537,2018-08-24,198.47916666666666,,198.47916666666666
537,2018-08-25,198.49166666666667,,198.49166666666667
537,2018-08-26,198.39166666666665,,198.39166666666665
537,2018-08-27,198.0,,198.0
537,2018-08-28,197.49583333333337,,197.49583333333337
537,2018-08-29,197.1666666666667,,197.1666666666667
537,2018-08-30,197.39166666666665,,197.39166666666665
537,2018-08-31,198.1916666666667,,198.1916666666667
537,2018-09-01,198.37083333333337,,198.37083333333337
537,2018-09-02,198.10833333333335,,198.10833333333335
537,2018-09-03,197.94583333333333,,197.94583333333333
537,2018-09-04,197.65,,197.65
537,2018-09-05,197.7875,,197.7875
537,2018-09-06,197.61666666666665,,197.61666666666665
537,2018-09-07,198.05416666666667,,198.05416666666667
537,2018-09-08,198.57499999999996,,198.57499999999996
537,2018-09-09,199.14583333333326,,199.14583333333326
537,2018-09-10,199.29166666666663,,199.29166666666663
537,2018-09-11,198.54583333333332,,198.54583333333332
537,2018-09-12,198.0875,,198.0875
537,2018-09-13,198.20416666666665,,198.20416666666665
537,2018-09-14,198.1916666666667,,198.1916666666667
537,2018-09-15,198.12500000000003,,198.12500000000003
537,2018-09-16,198.02499999999998,,198.02499999999998
537,2018-09-17,197.8958333333333,,197.8958333333333